QLK230D YBBN-YHBA

Flight info

Callsign QLK230D
Flight time 0h 40m
Altitude 18000
Route BIXAD Q67 GUDSO Q24 TERUV DCT HAAVI
Aircraft DH8D/M-SDE2E3FGRY/H

Departure

Time 2026-04-18 09:20
Airport Brisbane International Airport (YBBN)

Arrival

Time 2026-04-18 10:00
Airport Hervey Bay Airport (YHBA)
Time Latitude Longitude Altitude Speed Heading
2026-04-18 09:06 -27.38268 153.12152 23 ft 0 kts 148°
2026-04-18 09:08 -27.38288 153.12125 23 ft 9 kts 267°
2026-04-18 09:09 -27.38248 153.12123 23 ft 7 kts 41°
2026-04-18 09:09 -27.38232 153.12135 22 ft 0 kts 26°
2026-04-18 09:10 -27.38191 153.12167 22 ft 12 kts 46°
2026-04-18 09:10 -27.38187 153.12244 22 ft 9 kts 114°
2026-04-18 09:10 -27.38207 153.12300 22 ft 7 kts 104°
2026-04-18 09:10 -27.38228 153.12361 22 ft 7 kts 117°
2026-04-18 09:11 -27.38256 153.12422 23 ft 10 kts 117°
2026-04-18 09:11 -27.38266 153.12494 22 ft 1 kts 66°
2026-04-18 09:11 -27.38298 153.12529 23 ft 12 kts 128°
2026-04-18 09:11 -27.38275 153.12599 22 ft 10 kts 32°
2026-04-18 09:12 -27.38215 153.12636 22 ft 9 kts 27°
2026-04-18 09:12 -27.38159 153.12668 22 ft 9 kts 27°
2026-04-18 09:12 -27.38076 153.12715 22 ft 14 kts 28°
2026-04-18 09:12 -27.37986 153.12762 22 ft 13 kts
2026-04-18 09:13 -27.37913 153.12686 22 ft 18 kts 297°
2026-04-18 09:13 -27.37873 153.12555 22 ft 15 kts 290°
2026-04-18 09:13 -27.37813 153.12466 22 ft 12 kts 299°
2026-04-18 09:13 -27.37809 153.12460 22 ft 0 kts 298°
2026-04-18 09:14 -27.37800 153.12440 22 ft 12 kts 297°
2026-04-18 09:14 -27.37731 153.12285 22 ft 27 kts 297°
2026-04-18 09:14 -27.37651 153.12109 22 ft 23 kts 296°
2026-04-18 09:14 -27.37580 153.11958 22 ft 20 kts 296°
2026-04-18 09:15 -27.37520 153.11826 23 ft 18 kts 297°
2026-04-18 09:15 -27.37461 153.11696 23 ft 18 kts 297°
2026-04-18 09:15 -27.37403 153.11574 23 ft 16 kts 310°
2026-04-18 09:15 -27.37336 153.11560 23 ft 14 kts 22°
2026-04-18 09:16 -27.37243 153.11615 23 ft 11 kts 26°
2026-04-18 09:16 -27.37178 153.11650 23 ft 10 kts 25°
2026-04-18 09:16 -27.37102 153.11691 23 ft 20 kts 28°
2026-04-18 09:16 -27.36934 153.11789 23 ft 28 kts 26°
2026-04-18 09:17 -27.36775 153.11879 22 ft 22 kts 28°
2026-04-18 09:17 -27.36641 153.11957 23 ft 23 kts 27°
2026-04-18 09:17 -27.36494 153.12041 23 ft 24 kts 27°
2026-04-18 09:17 -27.36354 153.12122 22 ft 20 kts 27°
2026-04-18 09:18 -27.36260 153.12074 22 ft 16 kts 298°
2026-04-18 09:18 -27.36231 153.12012 22 ft 0 kts 297°
2026-04-18 09:18 -27.36221 153.11992 23 ft 11 kts 300°
2026-04-18 09:18 -27.36213 153.11899 22 ft 12 kts 247°
2026-04-18 09:19 -27.36247 153.11861 23 ft 0 kts 208°
2026-04-18 09:19 -27.36296 153.11833 23 ft 36 kts 207°
2026-04-18 09:19 -27.36799 153.11545 23 ft 118 kts 207°
2026-04-18 09:20 -27.37672 153.11015 128 ft 156 kts 208°
2026-04-18 09:20 -27.38658 153.10319 460 ft 177 kts 208°
2026-04-18 09:20 -27.39766 153.09564 966 ft 195 kts 208°
2026-04-18 09:20 -27.40990 153.08775 1493 ft 210 kts 201°
2026-04-18 09:21 -27.42353 153.08063 2014 ft 226 kts 200°
2026-04-18 09:21 -27.43321 153.07555 2360 ft 235 kts 201°
2026-04-18 09:21 -27.45337 153.06473 3053 ft 245 kts 202°
2026-04-18 09:21 -27.46877 153.05627 3556 ft 245 kts 204°
2026-04-18 09:22 -27.48349 153.04701 4020 ft 245 kts 216°
2026-04-18 09:22 -27.49232 153.03090 4488 ft 247 kts 257°
2026-04-18 09:22 -27.49152 153.01176 5018 ft 244 kts 279°
2026-04-18 09:22 -27.48842 152.99319 5523 ft 242 kts 280°
2026-04-18 09:23 -27.48519 152.97487 6009 ft 241 kts 281°
2026-04-18 09:23 -27.48185 152.95644 6507 ft 239 kts 281°
2026-04-18 09:23 -27.47847 152.93813 7009 ft 238 kts 281°
2026-04-18 09:23 -27.47227 152.92119 7457 ft 242 kts 306°
2026-04-18 09:24 -27.45785 152.91133 7941 ft 247 kts 339°
2026-04-18 09:24 -27.44118 152.90688 8433 ft 247 kts 343°
2026-04-18 09:24 -27.42401 152.90482 8897 ft 253 kts
2026-04-18 09:24 -27.40834 152.91354 9355 ft 261 kts 41°
2026-04-18 09:25 -27.39717 152.92956 9864 ft 261 kts 53°
2026-04-18 09:25 -27.38664 152.94638 10346 ft 261 kts 54°
2026-04-18 09:25 -27.37624 152.96313 10820 ft 262 kts 54°
2026-04-18 09:25 -27.36594 152.97972 11288 ft 261 kts 54°
2026-04-18 09:26 -27.35554 152.99643 11744 ft 261 kts 54°
2026-04-18 09:26 -27.34518 153.01303 12214 ft 260 kts 54°
2026-04-18 09:26 -27.33471 153.02975 12550 ft 262 kts 54°
2026-04-18 09:26 -27.32414 153.04662 12898 ft 263 kts 54°
2026-04-18 09:27 -27.31366 153.06331 13250 ft 263 kts 54°
2026-04-18 09:27 -27.30308 153.08015 13631 ft 262 kts 54°
2026-04-18 09:27 -27.29217 153.09642 13974 ft 260 kts 46°
2026-04-18 09:27 -27.27898 153.11021 14383 ft 256 kts 39°
2026-04-18 09:28 -27.26562 153.12315 14743 ft 253 kts 38°
2026-04-18 09:28 -27.25228 153.13608 15102 ft 250 kts 38°
2026-04-18 09:28 -27.23925 153.14871 15456 ft 245 kts 38°
2026-04-18 09:28 -27.22647 153.16113 15805 ft 240 kts 37°
2026-04-18 09:29 -27.21361 153.17261 16134 ft 230 kts 23°
2026-04-18 09:29 -27.19935 153.17903 16492 ft 215 kts 10°
2026-04-18 09:29 -27.18532 153.18393 16837 ft 208 kts 11°
2026-04-18 09:29 -27.17117 153.18886 16997 ft 216 kts 11°
2026-04-18 09:30 -27.15652 153.19389 17087 ft 228 kts 11°
2026-04-18 09:30 -27.14080 153.19933 17182 ft 239 kts 11°
2026-04-18 09:30 -27.12464 153.20496 17276 ft 250 kts 11°
2026-04-18 09:30 -27.10752 153.21092 17376 ft 261 kts 11°
2026-04-18 09:31 -27.08970 153.21715 17471 ft 273 kts 12°
2026-04-18 09:31 -27.07137 153.22357 17643 ft 279 kts 12°
2026-04-18 09:31 -27.05266 153.23016 17890 ft 284 kts 12°
2026-04-18 09:31 -27.03328 153.23689 18018 ft 292 kts
2026-04-18 09:32 -27.01323 153.24017 18067 ft 296 kts 356°
2026-04-18 09:32 -26.99217 153.24062 18075 ft 307 kts 354°
2026-04-18 09:32 -26.97048 153.24091 18076 ft 318 kts 354°
2026-04-18 09:32 -26.94789 153.24126 18071 ft 325 kts 355°
2026-04-18 09:33 -26.92508 153.24164 18065 ft 331 kts 355°
2026-04-18 09:33 -26.90178 153.24208 18066 ft 335 kts 355°
2026-04-18 09:33 -26.88203 153.24248 18066 ft 338 kts 355°
2026-04-18 09:33 -26.85858 153.24295 18062 ft 341 kts 356°
2026-04-18 09:34 -26.83453 153.24345 18070 ft 344 kts 356°
2026-04-18 09:34 -26.81038 153.24397 18070 ft 346 kts 356°
2026-04-18 09:34 -26.78647 153.24448 18063 ft 347 kts 355°
2026-04-18 09:34 -26.76216 153.24501 18059 ft 348 kts 356°
2026-04-18 09:35 -26.73772 153.24553 18059 ft 349 kts 356°
2026-04-18 09:35 -26.71351 153.24606 18057 ft 350 kts 356°
2026-04-18 09:35 -26.68913 153.24528 18034 ft 344 kts 346°
2026-04-18 09:35 -26.66627 153.23857 18065 ft 338 kts 338°
2026-04-18 09:36 -26.64370 153.23068 18074 ft 339 kts 337°
2026-04-18 09:36 -26.62118 153.22276 18057 ft 339 kts 337°
2026-04-18 09:36 -26.59866 153.21486 18056 ft 339 kts 337°
2026-04-18 09:36 -26.57608 153.20697 18064 ft 339 kts 337°
2026-04-18 09:37 -26.55334 153.19905 18053 ft 340 kts 337°
2026-04-18 09:37 -26.53081 153.19122 18056 ft 340 kts 337°
2026-04-18 09:37 -26.50842 153.18346 18063 ft 340 kts 337°
2026-04-18 09:37 -26.48576 153.17560 18065 ft 340 kts 337°
2026-04-18 09:38 -26.46303 153.16774 18068 ft 341 kts 337°
2026-04-18 09:38 -26.44016 153.15982 18064 ft 341 kts 337°
2026-04-18 09:38 -26.41758 153.15202 18058 ft 341 kts 337°
2026-04-18 09:38 -26.39489 153.14420 18061 ft 341 kts 338°
2026-04-18 09:39 -26.37221 153.13637 18057 ft 341 kts 337°
2026-04-18 09:39 -26.34932 153.12848 18054 ft 341 kts 338°
2026-04-18 09:39 -26.32678 153.12071 18055 ft 341 kts 337°
2026-04-18 09:39 -26.30398 153.11285 18056 ft 341 kts 337°
2026-04-18 09:40 -26.28133 153.10507 18062 ft 341 kts 338°
2026-04-18 09:40 -26.25833 153.09752 17891 ft 347 kts 339°
2026-04-18 09:40 -26.23474 153.09042 17622 ft 350 kts 340°
2026-04-18 09:40 -26.21165 153.08356 17316 ft 339 kts 339°
2026-04-18 09:41 -26.18914 153.07683 17025 ft 330 kts 340°
2026-04-18 09:41 -26.16718 153.07025 16737 ft 322 kts 339°
2026-04-18 09:41 -26.14587 153.06386 16457 ft 315 kts 339°
2026-04-18 09:41 -26.12483 153.05753 16183 ft 309 kts 339°
2026-04-18 09:42 -26.10428 153.05133 15914 ft 304 kts 339°
2026-04-18 09:42 -26.08404 153.04523 15649 ft 300 kts 339°
2026-04-18 09:42 -26.06393 153.03917 15386 ft 296 kts 339°
2026-04-18 09:42 -26.04402 153.03316 15123 ft 293 kts 339°
2026-04-18 09:43 -26.02442 153.02725 14867 ft 290 kts 339°
2026-04-18 09:43 -26.00511 153.02142 14616 ft 287 kts 339°
2026-04-18 09:43 -25.98596 153.01566 14360 ft 284 kts 339°
2026-04-18 09:43 -25.96703 153.00995 14112 ft 282 kts 339°
2026-04-18 09:44 -25.94807 153.00424 13866 ft 279 kts 339°
2026-04-18 09:44 -25.92941 152.99863 13619 ft 277 kts 339°
2026-04-18 09:44 -25.91071 152.99301 13375 ft 276 kts 339°
2026-04-18 09:44 -25.89234 152.98747 13141 ft 274 kts 339°
2026-04-18 09:45 -25.87377 152.98189 12893 ft 273 kts 339°
2026-04-18 09:45 -25.85533 152.97633 12651 ft 274 kts 339°
2026-04-18 09:45 -25.83693 152.97081 12412 ft 276 kts 340°
2026-04-18 09:45 -25.81817 152.96518 12163 ft 279 kts 340°
2026-04-18 09:46 -25.79938 152.95953 11917 ft 280 kts 340°
2026-04-18 09:46 -25.78045 152.95386 11665 ft 282 kts 340°
2026-04-18 09:46 -25.76150 152.94818 11418 ft 283 kts 340°
2026-04-18 09:46 -25.74233 152.94243 11174 ft 283 kts 340°
2026-04-18 09:47 -25.72324 152.93672 10915 ft 283 kts 340°
2026-04-18 09:47 -25.70432 152.93105 10662 ft 282 kts 341°
2026-04-18 09:47 -25.68534 152.92537 10415 ft 281 kts 341°
2026-04-18 09:47 -25.66668 152.91978 10165 ft 279 kts 341°
2026-04-18 09:48 -25.64809 152.91422 9884 ft 276 kts 340°
2026-04-18 09:48 -25.62973 152.90811 9607 ft 269 kts 333°
2026-04-18 09:48 -25.61403 152.89766 9386 ft 259 kts 320°
2026-04-18 09:48 -25.59956 152.88611 9160 ft 255 kts 320°
2026-04-18 09:49 -25.58526 152.87465 8929 ft 251 kts 320°
2026-04-18 09:49 -25.57126 152.86342 8706 ft 248 kts 320°
2026-04-18 09:49 -25.55740 152.85236 8486 ft 244 kts 320°
2026-04-18 09:49 -25.54365 152.84140 8271 ft 241 kts 320°
2026-04-18 09:50 -25.53005 152.83057 8065 ft 238 kts 320°
2026-04-18 09:50 -25.51682 152.82007 7859 ft 235 kts 320°
2026-04-18 09:50 -25.50344 152.80945 7650 ft 232 kts 320°
2026-04-18 09:50 -25.49039 152.79910 7445 ft 230 kts 320°
2026-04-18 09:51 -25.47750 152.78889 7240 ft 229 kts 320°
2026-04-18 09:51 -25.46440 152.77852 7040 ft 228 kts 320°
2026-04-18 09:51 -25.45152 152.76833 6841 ft 228 kts 320°
2026-04-18 09:51 -25.44291 152.76152 6711 ft 229 kts 320°
2026-04-18 09:52 -25.42546 152.74773 6444 ft 231 kts 320°
2026-04-18 09:52 -25.41250 152.73749 6249 ft 231 kts 320°
2026-04-18 09:52 -25.39925 152.72704 6043 ft 232 kts 321°
2026-04-18 09:52 -25.38602 152.71658 5831 ft 233 kts 321°
2026-04-18 09:53 -25.37296 152.70627 5619 ft 232 kts 322°
2026-04-18 09:53 -25.35975 152.69585 5412 ft 231 kts 322°
2026-04-18 09:53 -25.34667 152.68553 5205 ft 230 kts 322°
2026-04-18 09:53 -25.33370 152.67529 5004 ft 229 kts 323°
2026-04-18 09:54 -25.32065 152.66501 4806 ft 228 kts 323°
2026-04-18 09:54 -25.30778 152.65506 4558 ft 229 kts 327°
2026-04-18 09:54 -25.29305 152.65070 4278 ft 216 kts
2026-04-18 09:54 -25.28024 152.65761 4105 ft 202 kts 44°
2026-04-18 09:55 -25.27043 152.66862 3923 ft 201 kts 49°
2026-04-18 09:55 -25.26087 152.67995 3743 ft 199 kts 50°
2026-04-18 09:55 -25.25151 152.69124 3564 ft 197 kts 50°
2026-04-18 09:55 -25.24272 152.70245 3320 ft 191 kts 58°
2026-04-18 09:56 -25.24028 152.71584 3079 ft 173 kts 103°
2026-04-18 09:56 -25.24480 152.72731 2877 ft 155 kts 116°
2026-04-18 09:56 -25.24971 152.73766 2699 ft 154 kts 116°
2026-04-18 09:56 -25.25444 152.74738 2521 ft 155 kts 116°
2026-04-18 09:57 -25.25960 152.75792 2323 ft 157 kts 116°
2026-04-18 09:57 -25.26482 152.76852 2112 ft 156 kts 116°
2026-04-18 09:57 -25.26993 152.77892 1907 ft 153 kts 116°
2026-04-18 09:57 -25.27488 152.78897 1696 ft 144 kts 116°
2026-04-18 09:58 -25.27946 152.79826 1502 ft 132 kts 116°
2026-04-18 09:58 -25.28388 152.80716 1340 ft 133 kts 117°
2026-04-18 09:58 -25.28845 152.81632 1165 ft 136 kts 116°
2026-04-18 09:58 -25.29296 152.82541 973 ft 132 kts 117°
2026-04-18 09:59 -25.29709 152.83377 777 ft 119 kts 116°
2026-04-18 09:59 -25.30101 152.84170 464 ft 121 kts 115°
2026-04-18 09:59 -25.30491 152.85020 336 ft 126 kts 116°
2026-04-18 10:00 -25.31337 152.86711 158 ft 124 kts 115°
2026-04-18 10:00 -25.31753 152.87529 66 ft 110 kts 116°
2026-04-18 10:00 -25.32079 152.88203 56 ft 80 kts 118°
2026-04-18 10:00 -25.32219 152.88489 55 ft 26 kts 118°
2026-04-18 10:01 -25.32286 152.88632 56 ft 9 kts 104°
2026-04-18 10:01 -25.32302 152.88647 55 ft 4 kts 278°
2026-04-18 10:01 -25.32275 152.88594 56 ft 20 kts 300°
2026-04-18 10:01 -25.32207 152.88461 55 ft 10 kts 299°
2026-04-18 10:02 -25.32150 152.88441 55 ft 9 kts 22°
2026-04-18 10:02 -25.32084 152.88463 56 ft 6 kts 335°
2026-04-18 10:02 -25.32044 152.88438 57 ft 6 kts
2026-04-18 10:02 -25.32027 152.88464 57 ft 2 kts 71°
2026-04-18 10:03 -25.32026 152.88466 57 ft 0 kts 71°